Regional Weather Roundup
Issued by NWS

Home | Current Version | Previous Version | Graphics & Text | Print | Product List | Glossary On
Versions: 1 2 3 4 5 6 7 8 9 10 11 12 13 14 15 16 17 18 19 20 21 22 23 24 25 26 27 28 29 30 31 32 33 34 35 36 37 38 39 40 41 42 43 44 45 46 47 48 49 50
000
ASUS45 KABQ 310401
RWRNM
NEW MEXICO REGIONAL WEATHER ROUNDUP
NATIONAL WEATHER SERVICE ALBUQUERQUE NM
1000 PM MDT THU JUL 30 2015

NOTE: "FAIR" MEANS FEW OR NO CLOUDS BELOW 12,000 FEET AGL WITH NO
       SIGNIFICANT WEATHER OR OBSTRUCTIONS TO VISION.

      THIS PRODUCT IS RELEASED AS TWO VERSIONS.  ONE VERSION NEAR
      THE TOP OF THE HOUR CONTAINING PRELIMINARY DATA FROM ALBUQUERQUE
      AND OTHER STATIONS.  A FINAL VERSION WITH ADDITIONAL DATA IS
      ISSUED ABOUT 10 MINUTES AFTER THE HOUR.

NMZ501-503-504-510>518-310500-
NORTHWEST PLATEAU/NORTHCENTRAL MOUNTAINS

CITY           SKY/WX    TMP DP  RH WIND       PRES   REMARKS
FARMINGTON     CLOUDY    67  60  78 SW7       30.32R
SANTA FE       CLOUDY    66  57  72 SE7       30.43R
TAOS           CLOUDY    61  48  63 SE10      30.47F

$$
NMZ402-403-502-505>509-310500-
WESTCENTRAL MOUNTAINS/SOUTHWEST MOUNTAINS

CITY           SKY/WX    TMP DP  RH WIND       PRES   REMARKS
GALLUP         CLOUDY    63  56  78 NE16G22   30.42R
SILVER CITY      N/A     73  63  68 NE6       30.32R

$$
NMZ407-409-411-412-310500-
SOUTHERN DESERTS

CITY           SKY/WX    TMP DP  RH WIND       PRES   REMARKS
DEMING         MOCLDY    78  62  57 E6        30.22R
HOLLOMAN AFB   MOCLDY    81  59  46 NW2       30.20R
ALAMOGORDO     MOCLDY    81  59  47 N5        30.22S
T OR C         MOCLDY    74  59  59 NW13G22   30.29R

$$
NMZ519>523-310500-
CENTRAL VALLEYS/CENTRAL HIGHLANDS

CITY           SKY/WX    TMP DP  RH WIND       PRES   REMARKS
ALBUQUERQUE    MOCLDY    73  58  59 SE3       30.35R
DOUBLE EAGLE   MOCLDY    66  63  88 CALM      30.38R
MORIARTY ARPT    N/A     63  59  88 CALM      30.43R
CLINES CORNERS NOT AVBL
BELEN          MOCLDY    68  60  75 S5        30.33R
SOCORRO        NOT AVBL

$$
NMZ524>526-539-540-310500-
SOUTHCENTRAL MOUNTAINS

CITY           SKY/WX    TMP DP  RH WIND       PRES   REMARKS
RUIDOSO          N/A    N/A N/A N/A MISG        N/A

$$
NMZ527>531-310500-
NORTHEAST HIGHLANDS/NORTHEAST PLAINS

CITY           SKY/WX    TMP DP  RH WIND       PRES   REMARKS
LAS VEGAS      LGT RAIN  59  56  89 NE8       30.49R
RATON          CLOUDY    64  60  87 S6        30.43R
CLAYTON        MOCLDY    67  64  90 CALM      30.35R

$$
NMZ532>537-310500-
EASTCENTRAL PLAINS

CITY           SKY/WX    TMP DP  RH WIND       PRES   REMARKS
TUCUMCARI      MOCLDY    71  65  81 SW7       30.28R
CANNON AFB     MOCLDY    71  66  85 NE7       30.29R
CLOVIS AIRPORT MOCLDY    72  64  78 CALM      30.31R

$$
NMZ028-029-538-310500-
SOUTHEAST PLAINS

CITY           SKY/WX    TMP DP  RH WIND       PRES   REMARKS
ROSWELL        CLOUDY    78  63  59 NW13      30.25R
ARTESIA        DRIZZLE   79  66  65 N18       30.21R
CARLSBAD       MOCLDY    85  55  35 SE6       30.14R
HOBBS          MOCLDY    82  55  39 NE12      30.22R


$$


USA.gov is the U.S. government's official web portal to all federal, state and local government web resources and services.